WetterOnline ( http://www.wetteronline.de )

Wetter aktuell Freiburg

Aktuelles Wetter: Freiburg/Flugplatz (236m)

6-stündlich | Neueste Meldungen
Ortszeit Temperatur Wetter
Di, 16.10. 8:00 5.2° C wolkig
Di, 16.10. 2:00 7.3° C fast wolkenlos
Mo, 15.10. 20:00 14.7° C wolkenlos
Mo, 15.10. 14:00 21.8° C wolkenlos
Mo, 15.10. 8:00 6.3° C wolkenlos
Mo, 15.10. 2:00 7.4° C wolkenlos
So, 14.10. 20:00 14.4° C wolkenlos
So, 14.10. 14:00 22.7° C wolkenlos
Ortszeit Temperatur Wetter
Di, 16.10. 10:00 11.9° C leicht bewölkt
Di, 16.10. 9:50 11.9° C wolkig
Di, 16.10. 9:40 11.4° C wolkig
Di, 16.10. 9:30 9.8° C wolkig
Di, 16.10. 9:20 9.8° C wolkig
Di, 16.10. 9:10 8.6° C wolkig
Di, 16.10. 9:00 7.4° C wolkig
Di, 16.10. 8:30 5.5° C wolkig
Di, 16.10. 8:00 5.2° C wolkig
Di, 16.10. 7:30 5.3° C leicht bewölkt
Di, 16.10. 7:00 5.1° C wolkenlos
Ortszeit Relative Feuchte Sichtweite
Di, 16.10. 8:00 98% 5.0 km
Di, 16.10. 2:00 93% 17 km
Mo, 15.10. 20:00 73% 30 km
Mo, 15.10. 14:00 43% 40 km
Mo, 15.10. 8:00 89% 19 km
Mo, 15.10. 2:00 87% 26 km
So, 14.10. 20:00 75% 35 km
So, 14.10. 14:00 46% 35 km
Ortszeit Relative Feuchte Sichtweite
Di, 16.10. 10:00 79% 14 km
Di, 16.10. 9:50 79% -
Di, 16.10. 9:40 82% -
Di, 16.10. 9:30 87% 13 km
Di, 16.10. 9:20 87% -
Di, 16.10. 9:10 92% -
Di, 16.10. 9:00 91% 12 km
Di, 16.10. 8:30 98% 7 km
Di, 16.10. 8:00 98% 5.0 km
Di, 16.10. 7:30 99% 6 km
Di, 16.10. 7:00 96% 9 km
Ortszeit Niederschlagsmenge Niederschlagsart
Di, 16.10. 8:00 0.0 l/m2 in 12 Std. -
Di, 16.10. 2:00 0.0 l/m2 in 6 Std. -
Mo, 15.10. 20:00 0.0 l/m2 in 12 Std. -
Mo, 15.10. 14:00 0.0 l/m2 in 6 Std. -
Mo, 15.10. 8:00 0.0 l/m2 in 12 Std. -
Mo, 15.10. 2:00 0.0 l/m2 in 6 Std. -
So, 14.10. 20:00 0.0 l/m2 in 12 Std. -
So, 14.10. 14:00 0.0 l/m2 in 6 Std. -
Ortszeit Niederschlagsmenge Niederschlagsart
Di, 16.10. 10:00 0.0 l/m2 in 1 Std. -
Di, 16.10. 9:50 keine Meldung -
Di, 16.10. 9:40 keine Meldung -
Di, 16.10. 9:30 0.0 l/m2 in 1 Std. -
Di, 16.10. 9:20 keine Meldung -
Di, 16.10. 9:10 keine Meldung -
Di, 16.10. 9:00 0.0 l/m2 in 1 Std. -
Di, 16.10. 8:30 0.0 l/m2 in 1 Std. -
Di, 16.10. 8:00 0.0 l/m2 in 1 Std. -
Di, 16.10. 7:30 0.0 l/m2 in 1 Std. -
Di, 16.10. 7:00 0.0 l/m2 in 1 Std. -
Ortszeit Stärke Spitze Richtung
km/h Bft. km/h Grad Sektor
Di, 16.10. 8:00 0 0 7 - -
Di, 16.10. 2:00 4 1 7 240° SW
Mo, 15.10. 20:00 4 1 25 230° SW
Mo, 15.10. 14:00 7 2 14 350° N
Mo, 15.10. 8:00 2 1 7 320° NW
Mo, 15.10. 2:00 0 0 7 - -
So, 14.10. 20:00 0 0 14 - -
So, 14.10. 14:00 7 2 18 330° NW
Ortszeit Stärke Spitze Richtung
km/h Bft. km/h Grad Sektor
Di, 16.10. 10:00 4 1 4 250° W
Di, 16.10. 9:50 4 1 - 250° W
Di, 16.10. 9:40 4 1 - 240° SW
Di, 16.10. 9:30 4 1 4 310° NW
Di, 16.10. 9:20 4 1 - 310° NW
Di, 16.10. 9:10 2 1 - 360° N
Di, 16.10. 9:00 0 0 4 - -
Di, 16.10. 8:30 0 0 4 - -
Di, 16.10. 8:00 0 0 4 - -
Di, 16.10. 7:30 2 1 4 30° NO
Di, 16.10. 7:00 0 0 4 - -
Ortszeit Untergrenze Bedeckung Gattung
total tief tief mittel hoch
Di, 16.10. 8:00 9000 m 8/8 0/8 - - -
Di, 16.10. 2:00 10500 m 1/8 0/8 - - -
Mo, 15.10. 20:00 3000 m 0/8 0/8 - - -
Mo, 15.10. 14:00 - 0/8 0/8 - - -
Mo, 15.10. 8:00 - 0/8 0/8 - - -
Mo, 15.10. 2:00 - 0/8 0/8 - - -
So, 14.10. 20:00 - 0/8 0/8 - - -
So, 14.10. 14:00 - 0/8 0/8 - - -
Ortszeit Bedeckungsgrad in Achtel und Wolkenuntergrenze
Di, 16.10. 10:00 8(8400m) 8(9000m)
Di, 16.10. 9:50 8(8400m) 8(9000m)
Di, 16.10. 9:40 8(8700m) 8(9000m)
Di, 16.10. 9:30 8(9000m)
Di, 16.10. 9:20 8(9000m)
Di, 16.10. 9:10 8(9000m)
Di, 16.10. 9:00 8(9000m)
Di, 16.10. 8:30 8(9000m) 8(9000m)
Di, 16.10. 8:00 8(9000m) 8(9000m)
Di, 16.10. 7:30 6(9000m) 7(9000m)
Di, 16.10. 7:00 keine Wolken
Ortszeit Luftdruck NN (hPa) Tendenz (hPa in 3 Std.)
Di, 16.10. 8:00 1019 + 0,7
Di, 16.10. 2:00 1017 + 0,9
Mo, 15.10. 20:00 1014 + 1,5
Mo, 15.10. 14:00 1012 - 1,2
Mo, 15.10. 8:00 1015 + 0,8
Mo, 15.10. 2:00 1014 + 1,0
So, 14.10. 20:00 1011 + 0,1
So, 14.10. 14:00 1011 - 1,6
Ortszeit Luftdruck NN (hPa) Tendenz (hPa in 3 Std.)
Di, 16.10. 10:00 1019 + 1,0
Di, 16.10. 9:50 1019 keine Meldung
Di, 16.10. 9:40 1019 keine Meldung
Di, 16.10. 9:30 1019 + 0,6
Di, 16.10. 9:20 1019 keine Meldung
Di, 16.10. 9:10 1019 keine Meldung
Di, 16.10. 9:00 1019 + 0,6
Di, 16.10. 8:30 1019 + 0,9
Di, 16.10. 8:00 1019 + 0,7
Di, 16.10. 7:30 1019 + 0,7
Di, 16.10. 7:00 1019 + 1,0
Ortszeit Schneehöhe (cm)
Di, 16.10. 8:00 0
Di, 16.10. 2:00 0
Mo, 15.10. 20:00 0
Mo, 15.10. 14:00 0
Mo, 15.10. 8:00 0
Mo, 15.10. 2:00 0
So, 14.10. 20:00 0
So, 14.10. 14:00 0
Ortszeit Schneehöhe (cm)
Di, 16.10. 10:00 0
Di, 16.10. 9:50 0
Di, 16.10. 9:40 0
Di, 16.10. 9:30 0
Di, 16.10. 9:20 0
Di, 16.10. 9:10 0
Di, 16.10. 9:00 0
Di, 16.10. 8:30 0
Di, 16.10. 8:00 0
Di, 16.10. 7:30 0
Di, 16.10. 7:00 0
Link zu dieser Seite / Seite empfehlen

Das Wetter in ...